Regional Weather Roundup
Issued by NWS

Home | Current Version | Previous Version | Text Only | Print | Product List | Glossary Off
Versions: 1 2 3 4 5 6 7 8 9 10 11 12 13 14 15 16 17 18 19 20 21 22 23 24 25 26 27 28 29 30 31 32 33 34 35 36 37 38 39 40 41 42 43 44 45 46 47 48 49 50

000
ASUS43 KMKX 251910
RWRWI

WISCONSIN REGIONAL WEATHER ROUNDUP
NATIONAL WEATHER SERVICE MILWAUKEE/SULLIVAN WI
100 PM CST SUN JAN 25 2015

NOTE: "FAIR" INDICATES FEW OR NO CLOUDS BELOW 12,000 FEET WITH NO
SIGNIFICANT WEATHER AND/OR OBSTRUCTIONS TO VISIBILITY.

WIZ001-002-006>008-014>016-023>028-252000-
NORTHWEST WISCONSIN

CITY           SKY/WX    TMP DP  RH WIND       PRES   REMARKS
SUPERIOR ARPT  CLOUDY    23  16  73 E7        30.07F WCI  15
ASHLAND        PTSUNNY   20  10  65 E12       30.07F WCI   8
HAYWARD        MOSUNNY   20   8  60 E6        30.02F WCI  12
SIREN          CLOUDY    25  12  59 CALM      30.03S
CUMBERLAND     PTSUNNY   19   9  63 E3        30.02S
RICE LAKE      PTSUNNY   22   9  57 E5        30.03F WCI  16
CHETEK         CLOUDY    21  10  61 NE3       30.03S
LADYSMITH      PTSUNNY   21  10  63 NE6       30.03F WCI  14
EAU CLAIRE     PTSUNNY   22  11  62 E12       30.01F WCI  10
MENOMONIE      SUNNY     24  12  60 NE7       30.03S WCI  16
NEW RICHMOND   SUNNY     22  11  61 E5        30.03S WCI  16
OSCEOLA        SUNNY     24  12  59 NE7       30.07S WCI  16
$$

WIZ003>005-009-010-017-018-252000-
NORTH CENTRAL WISCONSIN

CITY           SKY/WX    TMP DP  RH WIND       PRES   REMARKS
MANITOWISH WTR CLOUDY    17   4  58 CALM      30.00S
ARBOR VITAE    PTSUNNY   19   8  60 E6        29.99F WCI  11
WOODRUFF       PTSUNNY   19   8  60 E6        29.99F WCI  11
RHINELANDER    SUNNY     17   5  59 E3        29.99S
EAGLE RIVER    SUNNY     17   4  56 CALM      29.98F
LAND O LAKES   MOSUNNY   19   6  56 CALM      29.99F
PHILLIPS       CLOUDY    19   7  60 CALM      30.00S
TOMAHAWK       SUNNY     19   6  57 CALM      30.01S
MEDFORD        SUNNY     19   6  57 E5        29.99S WCI  13
MERRILL        SUNNY     20   6  55 NE5       30.00S WCI  13
$$

WIZ029-030-035-036-043>047-252000-
CENTRAL WISCONSIN

CITY           SKY/WX    TMP DP  RH WIND       PRES   REMARKS
WAUSAU         MOSUNNY   19   8  62 NE9       29.98F WCI   8
MOSINEE        SUNNY     19   9  63 E7        30.00F WCI  10
MARSHFIELD     CLOUDY    20  10  65 E7        29.99F WCI  11
STEVENS POINT  MOSUNNY   18   5  58 E10       30.01F WCI   6
WAUPACA        PTSUNNY   22  10  58 NE8       30.03S WCI  13
WAUTOMA        CLOUDY    21  10  62 NE12      30.02R WCI   9
WISC RAPIDS    MOSUNNY   21   8  57 E12       30.01F WCI   9
CAMP DOUGLAS   MOSUNNY   25  12  58 E9G18     30.00R WCI  15
$$

WIZ011>013-019>022-031-037>040-048>050-252000-
NORTHEAST WISCONSIN

CITY           SKY/WX    TMP DP  RH WIND       PRES   REMARKS
ANTIGO         SUNNY     17   6  62 CALM      29.98F
SHAWANO        PTSUNNY   23  10  59 NE7       30.05F WCI  14
OCONTO         MOSUNNY   20   8  59 CALM      30.06S
STURGEON BAY   CLOUDY    18  10  73 N16       30.05S WCI   3
GREEN BAY      MOSUNNY   21  12  68 NE21      30.03S WCI   5
MANITOWOC      MOSUNNY   24  12  60 NE14G24   30.01R WCI  12
APPLETON       PTSUNNY   21   9  58 NE17G24   30.01S WCI   7
CLINTONVILLE   PTSUNNY   21   9  58 E10G17    30.03F WCI  10
OSHKOSH        PTSUNNY   21  12  68 NE20G26   30.00R WCI   6
$$

WIZ032>034-041-042-053>061-252000-
SOUTHWEST WISCONSIN

CITY           SKY/WX    TMP DP  RH WIND       PRES   REMARKS
LA CROSSE      PTSUNNY   30  16  56 NE7       30.00S WCI  23
SPARTA         CLOUDY    25  15  65 NE8       30.01F WCI  16
VIROQUA        CLOUDY    25  17  73 N12       29.95S WCI  14
BOSCOBEL       PTSUNNY   29  17  61 NE12G20   29.98R WCI  19
PRAIRIE DU CHI MOSUNNY   28  16  60 NE10G21   29.96S WCI  19
PLATTEVILLE    CLOUDY    25  19  80 N22G28    29.91R WCI  10
$$

WIZ056-057-062-063-064-067-068-252000-
SOUTH CENTRAL WISCONSIN

CITY           SKY/WX    TMP DP  RH WIND       PRES   REMARKS
REEDSBURG      CLOUDY    21  12  68 NE10G17   29.98F WCI  10
BARABOO/DELLS  CLOUDY    21  13  71 NE12G18   29.97S WCI  10
LONE ROCK      CLOUDY    24  15  68 NE12      29.98R WCI  13
MINERAL POINT  CLOUDY    27  19  74 N18G24    29.91R WCI  13
MADISON        PTSUNNY   25  17  72 N21       29.94R WCI  11
MIDDLETON      CLOUDY    26  18  71 NE18      29.94R WCI  12
WATERTOWN      SUNNY     27  12  53 NE14G23   29.92S WCI  16
MONROE         CLOUDY    27  21  80 NE22G29   29.87R WCI  12
JANESVILLE     PTSUNNY   28  16  59 NE22G28   29.88S WCI  15
$$

WIZ051-052-058>065-066-070>072-252000-
SOUTHEAST WISCONSIN

CITY           SKY/WX    TMP DP  RH WIND       PRES   REMARKS
MILWAUKEE      PTSUNNY   26  14  60 NE21G29   29.91S WCI  12
WAUKESHA       PTSUNNY   21  10  63 NE17G29   29.92R WCI   7
MILWAUKEE/TIMM CLOUDY    25  12  58 NE18G26   29.93S WCI  11
RACINE         PTSUNNY   28  16  60 NE18G31   29.90F WCI  15
BURLINGTON     PTSUNNY   26  14  61 NE18      29.89R WCI  12
KENOSHA        CLOUDY    27  17  66 NE22G31   29.87S WCI  13
FOND DU LAC    MOSUNNY   23  15  71 N20       29.98S WCI   8
SHEBOYGAN      SUNNY     23  12  62 NE23G32   29.98S WCI   7
WEST BEND      SUNNY     25  10  54 NE16G25   29.94R WCI  12
JUNEAU         MOSUNNY   26  11  54 NE17      29.95S WCI  13
$$

LSZ147-162-252000-
LAKE SUPERIOR

STATION/POSITION TIME  TEMP    WIND        PRES    WAVE
                       AIR SEA DIR/SP/G            HT/PER
                 (UTC) (F)     (DEG/KT/KT) (MB)    (FT/S)
DEVILS ISLAND    1900   19      50/ 17/ 19 1020.2F
PORT WING        1800   21      80/  3/  7 1019.0
SAXON HARBOR     1800   21        CALM     1019.0S
$$

LMZ867-665-643>646-252000-
LAKE MICHIGAN

STATION/POSITION TIME  TEMP    WIND        PRES    WAVE
                       AIR SEA DIR/SP/G            HT/PER
                 (UTC) (F)     (DEG/KT/KT) (MB)    (FT/S)
NORTHPORT PIER   1808   19      20/ 11/ 15 1018.3R
SISTER BAY       1813   20      20/ 10/ 14   N/A
KEWAUNEE LAKESHO 1800   22      50/ 18/ 25 1015.8S
SHEBOYGAN LAKESH 1900   22      30/ 24/ 26 1016.4R
PORT WASHINGTON  1820   25      40/ 21     1015.2S
MILWAUKEE LAKESH 1800   25      40/ 21/ 26   N/A
KENOSHA   LAKESH 1900   26      30/ 24/ 28 1011.9R
$$

TC  - TEMPERATURE IN CELSIUS
VSB - VISIBILITY IN STATUTE MILES
WCI - WIND CHILL INDEX
HX  - HEAT INDEX



USA.gov is the U.S. government's official web portal to all federal, state and local government web resources and services.